Candor,1990,10,1,0,0.052                                                                             
Candor,1990,10,1,1,0.042                                                                             
Candor,1990,10,1,2,0.038                                                                             
Candor,1990,10,1,3,0.033                                                                             
Candor,1990,10,1,4,0.027                                                                             
Candor,1990,10,1,5,0.028                                                                             
Candor,1990,10,1,6,0.028                                                                             
Candor,1990,10,1,7,0.026                                                                             
Candor,1990,10,1,8,0.029                                                                             
Candor,1990,10,1,9,0.031                                                                             
Candor,1990,10,1,10,0.036                                                                            
Candor,1990,10,1,11,0.040                                                                            
Candor,1990,10,1,12,0.042                                                                            
Candor,1990,10,1,13,99.000                                                                           
Candor,1990,10,1,14,0.045                                                                            
Candor,1990,10,1,15,0.045                                                                            
Candor,1990,10,1,16,0.046                                                                            
Candor,1990,10,1,17,0.041                                                                            
Candor,1990,10,1,18,0.036                                                                            
Candor,1990,10,1,19,0.031                                                                            
Candor,1990,10,1,20,0.029                                                                            
Candor,1990,10,1,21,0.029                                                                            
Candor,1990,10,1,22,0.031                                                                            
Candor,1990,10,1,23,0.028                                                                            
Candor,1990,10,2,0,0.022                                                                             
Candor,1990,10,2,1,0.020                                                                             
Candor,1990,10,2,2,0.017                                                                             
Candor,1990,10,2,3,0.018                                                                             
Candor,1990,10,2,4,0.022                                                                             
Candor,1990,10,2,5,0.023                                                                             
Candor,1990,10,2,6,0.020                                                                             
Candor,1990,10,2,7,0.018                                                                             
Candor,1990,10,2,8,99.000                                                                            
Candor,1990,10,2,9,0.038                                                                             
Candor,1990,10,2,10,0.050                                                                            
Candor,1990,10,2,11,0.055                                                                            
Candor,1990,10,2,12,0.059                                                                            
Candor,1990,10,2,13,0.061                                                                            
Candor,1990,10,2,14,0.064                                                                            
Candor,1990,10,2,15,0.064                                                                            
Candor,1990,10,2,16,0.062                                                                            
Candor,1990,10,2,17,0.049                                                                            
Candor,1990,10,2,18,0.043                                                                            
Candor,1990,10,2,19,99.000                                                                           
Candor,1990,10,2,20,99.000                                                                           
Candor,1990,10,2,21,99.000                                                                           
Candor,1990,10,2,22,99.000                                                                           
Candor,1990,10,2,23,99.000                                                                           
Candor,1990,10,3,0,99.000                                                                            
Candor,1990,10,3,1,99.000                                                                            
Candor,1990,10,3,2,99.000                                                                            
Candor,1990,10,3,3,99.000                                                                            
Candor,1990,10,3,4,99.000                                                                            
Candor,1990,10,3,5,99.000                                                                            
Candor,1990,10,3,6,99.000                                                                            
Candor,1990,10,3,7,99.000                                                                            
Candor,1990,10,3,8,0.009                                                                             
Candor,1990,10,3,9,0.015                                                                             
Candor,1990,10,3,10,0.018                                                                            
Candor,1990,10,3,11,0.026                                                                            
Candor,1990,10,3,12,0.047                                                                            
Candor,1990,10,3,13,0.063                                                                            
Candor,1990,10,3,14,0.071                                                                            
Candor,1990,10,3,15,0.072                                                                            
Candor,1990,10,3,16,0.085                                                                            
Candor,1990,10,3,17,0.066                                                                            
Candor,1990,10,3,18,0.067                                                                            
Candor,1990,10,3,19,0.065                                                                            
Candor,1990,10,3,20,0.060                                                                            
Candor,1990,10,3,21,0.055                                                                            
Candor,1990,10,3,22,0.051                                                                            
Candor,1990,10,3,23,0.046                                                                            
Candor,1990,10,4,0,0.044                                                                             
Candor,1990,10,4,1,0.043                                                                             
Candor,1990,10,4,2,0.041                                                                             
Candor,1990,10,4,3,0.042                                                                             
Candor,1990,10,4,4,0.040                                                                             
Candor,1990,10,4,5,0.039                                                                             
Candor,1990,10,4,6,0.039                                                                             
Candor,1990,10,4,7,0.039                                                                             
Candor,1990,10,4,8,0.042                                                                             
Candor,1990,10,4,9,0.050                                                                             
Candor,1990,10,4,10,0.053                                                                            
Candor,1990,10,4,11,0.055                                                                            
Candor,1990,10,4,12,0.057                                                                            
Candor,1990,10,4,13,0.055                                                                            
Candor,1990,10,4,14,0.050                                                                            
Candor,1990,10,4,15,0.039                                                                            
Candor,1990,10,4,16,0.033                                                                            
Candor,1990,10,4,17,0.026                                                                            
Candor,1990,10,4,18,0.018                                                                            
Candor,1990,10,4,19,0.019                                                                            
Candor,1990,10,4,20,0.017                                                                            
Candor,1990,10,4,21,0.011                                                                            
Candor,1990,10,4,22,0.013                                                                            
Candor,1990,10,4,23,0.011                                                                            
Candor,1990,10,5,0,0.013                                                                             
Candor,1990,10,5,1,0.003                                                                             
Candor,1990,10,5,2,0.003                                                                             
Candor,1990,10,5,3,0.010                                                                             
Candor,1990,10,5,4,0.006                                                                             
Candor,1990,10,5,5,0.008                                                                             
Candor,1990,10,5,6,0.010                                                                             
Candor,1990,10,5,7,0.017                                                                             
Candor,1990,10,5,8,0.021                                                                             
Candor,1990,10,5,9,0.027                                                                             
Candor,1990,10,5,10,0.042                                                                            
Candor,1990,10,5,11,0.049                                                                            
Candor,1990,10,5,12,0.054                                                                            
Candor,1990,10,5,13,0.057                                                                            
Candor,1990,10,5,14,0.057                                                                            
Candor,1990,10,5,15,0.058                                                                            
Candor,1990,10,5,16,0.055                                                                            
Candor,1990,10,5,17,0.042                                                                            
Candor,1990,10,5,18,0.028                                                                            
Candor,1990,10,5,19,0.033                                                                            
Candor,1990,10,5,20,0.031                                                                            
Candor,1990,10,5,21,0.045                                                                            
Candor,1990,10,5,22,0.020                                                                            
Candor,1990,10,5,23,99.000                                                                           
Candor,1990,10,6,0,99.000                                                                            
Candor,1990,10,6,1,0.027                                                                             
Candor,1990,10,6,2,0.034                                                                             
Candor,1990,10,6,3,0.044                                                                             
Candor,1990,10,6,4,99.000                                                                            
Candor,1990,10,6,5,0.024                                                                             
Candor,1990,10,6,6,0.025                                                                             
Candor,1990,10,6,7,0.013                                                                             
Candor,1990,10,6,8,0.016                                                                             
Candor,1990,10,6,9,0.044                                                                             
Candor,1990,10,6,10,0.053                                                                            
Candor,1990,10,6,11,0.058                                                                            
Candor,1990,10,6,12,0.058                                                                            
Candor,1990,10,6,13,0.057                                                                            
Candor,1990,10,6,14,0.057                                                                            
Candor,1990,10,6,15,0.064                                                                            
Candor,1990,10,6,16,0.059                                                                            
Candor,1990,10,6,17,0.044                                                                            
Candor,1990,10,6,18,99.000                                                                           
Candor,1990,10,6,19,99.000                                                                           
Candor,1990,10,6,20,99.000                                                                           
Candor,1990,10,6,21,99.000                                                                           
Candor,1990,10,6,22,99.000                                                                           
Candor,1990,10,6,23,99.000                                                                           
Candor,1990,10,7,0,99.000                                                                            
Candor,1990,10,7,1,0.011                                                                             
Candor,1990,10,7,2,99.000                                                                            
Candor,1990,10,7,3,99.000                                                                            
Candor,1990,10,7,4,99.000                                                                            
Candor,1990,10,7,5,99.000                                                                            
Candor,1990,10,7,6,99.000                                                                            
Candor,1990,10,7,7,0.011                                                                             
Candor,1990,10,7,8,0.025                                                                             
Candor,1990,10,7,9,0.026                                                                             
Candor,1990,10,7,10,0.029                                                                            
Candor,1990,10,7,11,0.030                                                                            
Candor,1990,10,7,12,0.032                                                                            
Candor,1990,10,7,13,0.034                                                                            
Candor,1990,10,7,14,0.035                                                                            
Candor,1990,10,7,15,0.035                                                                            
Candor,1990,10,7,16,0.040                                                                            
Candor,1990,10,7,17,0.035                                                                            
Candor,1990,10,7,18,0.030                                                                            
Candor,1990,10,7,19,0.031                                                                            
Candor,1990,10,7,20,0.033                                                                            
Candor,1990,10,7,21,0.033                                                                            
Candor,1990,10,7,22,0.024                                                                            
Candor,1990,10,7,23,0.025                                                                            
Candor,1990,10,8,0,0.025                                                                             
Candor,1990,10,8,1,0.022                                                                             
Candor,1990,10,8,2,0.020                                                                             
Candor,1990,10,8,3,0.015                                                                             
Candor,1990,10,8,4,0.013                                                                             
Candor,1990,10,8,5,0.009                                                                             
Candor,1990,10,8,6,0.016                                                                             
Candor,1990,10,8,7,0.015                                                                             
Candor,1990,10,8,8,0.017                                                                             
Candor,1990,10,8,9,0.023                                                                             
Candor,1990,10,8,10,0.027                                                                            
Candor,1990,10,8,11,0.034                                                                            
Candor,1990,10,8,12,0.038                                                                            
Candor,1990,10,8,13,0.032                                                                            
Candor,1990,10,8,14,0.041                                                                            
Candor,1990,10,8,15,0.042                                                                            
Candor,1990,10,8,16,0.041                                                                            
Candor,1990,10,8,17,0.035                                                                            
Candor,1990,10,8,18,0.032                                                                            
Candor,1990,10,8,19,0.035                                                                            
Candor,1990,10,8,20,0.040                                                                            
Candor,1990,10,8,21,0.032                                                                            
Candor,1990,10,8,22,0.025                                                                            
Candor,1990,10,8,23,0.021                                                                            
Candor,1990,10,9,0,0.008                                                                             
Candor,1990,10,9,1,0.002                                                                             
Candor,1990,10,9,2,0.009                                                                             
Candor,1990,10,9,3,0.011                                                                             
Candor,1990,10,9,4,0.007                                                                             
Candor,1990,10,9,5,0.005                                                                             
Candor,1990,10,9,6,0.006                                                                             
Candor,1990,10,9,7,0.006                                                                             
Candor,1990,10,9,8,99.000                                                                            
Candor,1990,10,9,9,99.000                                                                            
Candor,1990,10,9,10,0.030                                                                            
Candor,1990,10,9,11,0.031                                                                            
Candor,1990,10,9,12,0.036                                                                            
Candor,1990,10,9,13,0.039                                                                            
Candor,1990,10,9,14,0.037                                                                            
Candor,1990,10,9,15,0.037                                                                            
Candor,1990,10,9,16,0.034                                                                            
Candor,1990,10,9,17,0.029                                                                            
Candor,1990,10,9,18,0.020                                                                            
Candor,1990,10,9,19,99.000                                                                           
Candor,1990,10,9,20,99.000                                                                           
Candor,1990,10,9,21,99.000                                                                           
Candor,1990,10,9,22,99.000                                                                           
Candor,1990,10,9,23,99.000                                                                           
Candor,1990,10,10,0,99.000                                                                           
Candor,1990,10,10,1,99.000                                                                           
Candor,1990,10,10,2,0.019                                                                            
Candor,1990,10,10,3,0.025                                                                            
Candor,1990,10,10,4,0.024                                                                            
Candor,1990,10,10,5,0.024                                                                            
Candor,1990,10,10,6,0.023                                                                            
Candor,1990,10,10,7,0.020                                                                            
Candor,1990,10,10,8,0.017                                                                            
Candor,1990,10,10,9,0.022                                                                            
Candor,1990,10,10,10,0.022                                                                           
Candor,1990,10,10,11,0.020                                                                           
Candor,1990,10,10,12,0.012                                                                           
Candor,1990,10,10,13,0.015                                                                           
Candor,1990,10,10,14,0.020                                                                           
Candor,1990,10,10,15,0.026                                                                           
Candor,1990,10,10,16,0.021                                                                           